User: anonymous   Login
Location: Unspecified
(0.0000°N, 0.0000°E)
Time: 07:48:10
(UTC+00:00)
Language:

Kiku-4 - Orbit

View from above orbital plane
View from above orbital plane
View from above satellite
View from above satellite

Ground track
Ground track

The orbit data is extracted from the following two-line orbital elements,

1 13492U 82087A   18112.86851094 -.00000103 +00000-0 +15600-4 0  9999
2 13492 044.6169 052.7713 0010032 126.7477 270.4675 13.70975175784012
Epoch (UTC): 22 April 2018 20:50:39
Eccentricity: 0.0010032
inclination: 44.6169°
perigee height: 988 km
apogee height: 1003 km
right ascension of ascending node: 52.7713°
argument of perigee: 126.7477°
revolutions per day: 13.70975175
mean anomaly at epoch: 270.4675°
orbit number at epoch: 78401

The dashed part of the orbit path shows where the satellite is in the earth's shadow,  

DLR